Weather Roundup
Issued by NWS Chicago, IL

Home | Current Version | Previous Version | Text Only | Print | Product List | Glossary Off
Versions: 1 2 3 4 5 6 7 8 9 10 11 12 13 14 15 16 17 18 19 20 21 22 23 24 25 26 27 28 29 30 31 32 33 34 35 36 37 38 39 40 41 42 43 44 45 46 47 48 49 50

000
NZUS59 KLOT 061412
HRRLOT

CHICAGO AREA WEATHER ROUNDUP
NATIONAL WEATHER SERVICE CHICAGO/ROMEOVILLE IL
800 AM CST TUE DEC 06 2016

NOTE: "FAIR" INDICATES FEW OR NO CLOUDS BELOW 12,000 FEET WITH NO
SIGNIFICANT WEATHER AND/OR OBSTRUCTIONS TO VISIBILITY.

* THESE STATIONS ARE NOT UNDER NWS QUALITY CONTROL. THEY ALSO MAY NOT
  REPORT WEATHER SUCH AS PRECIPITATION OR FOG.

ILZ005-006-012>014-019>023-061500-
NORTHEAST ILLINOIS

CITY           SKY/WX    TMP DP  RH WIND       PRES   REMARKS
OHARE          CLOUDY    32  32 100 N5        29.78S FOG     WCI  27
MIDWAY         MOCLDY    32  29  88 NW7       29.78S FOG     WCI  26
AURORA         FOG       27  24  89 NW3       29.79F VSB<1/4
LANSING*       CLOUDY    31  31 100 CALM      29.78R FOG
JOLIET*          N/A     28  28  99 CALM      29.78F FOG
WAUKEGAN       CLOUDY    34  33  96 CALM      29.78F FOG
DUPAGE AIRPORT FOG       31  30  96 N3        29.77F VSB 1/8
WHEELING       CLOUDY    33  32  96 N3        29.80S FOG
KANKAKEE*      CLOUDY    32  30  94 CALM      29.79R FOG
MORRIS*        CLOUDY    27  26  95 CALM      29.78F FOG
LEWIS AIRPORT* PTCLDY    28  28 100 NE3       29.78F FOG
NORTHERLY ISL    N/A     38  33  82 E5          N/A
$$

WIZ051-052-058>065-066-070>072-061500-
SOUTHEAST WISCONSIN

CITY           SKY/WX    TMP DP  RH WIND       PRES   REMARKS
MILWAUKEE      MOCLDY    37  33  85 SE7       29.79F
KENOSHA*       CLOUDY    33  31  92 CALM      29.79F FOG
RACINE*        MOCLDY    39  34  82 SE7       29.81F
BURLINGTON     CLOUDY    32  32  99 CALM      29.79F FOG
WAUKESHA       CLOUDY    30  30 100 SE7       29.80S FOG     WCI  23
WEST BEND      CLOUDY    32  32 100 W3        29.79F FOG
$$

INZ001>003-010>013-019-020-061500-
NORTHWEST INDIANA

CITY           SKY/WX    TMP DP  RH WIND       PRES   REMARKS
GARY*          MOCLDY    32  30  93 CALM      29.78F
MICHIGAN CITY* NOT AVBL
RENSSELAER*    NOT AVBL
VALPARAISO     CLOUDY    33  30  88 VRB5      29.76F FOG     WCI  29
$$

LMZ740>746-061500-
SOUTHERN LAKE MICHIGAN

STATION/POSITION TIME  SKY/WX   TEMP WIND        PRES    VSBY
                                AIR  DIR/SP/G
                 (UTC)          (F)  (DEG/KT/KT) (MB)    (MI)
HARRISON CRIB    1340            40  110/  8/  9   N/A
BURNHAM HARBOR   1400            38   90/  3/  8   N/A
CALUMET HARBOR   1348            36   70/  3/  4 1007.9S
BURNS HARBOR     1340            33   60/  3/  7 1008.5F
MICHIGAN CITY    NOT AVBL
$$

ABBREVIATIONS USED IN REMARKS
   TC - TEMPERATURE IN CELSIUS
  WCI - WIND CHILL INDEX
   HX - HEAT INDEX
  VSB - VISIBILITY
$$



USA.gov is the U.S. government's official web portal to all federal, state and local government web resources and services.